Miscellaneous Local Product
Issued by NWS North Platte, NE

Home | Current Version | Previous Version | Text Only | Print | Product List | Glossary On
Versions: 1 2 3 4 5 6 7 8 9 10 11 12 13 14 15 16 17 18 19 20 21 22 23 24 25 26 27 28 29 30 31 32 33 34 35 36 37 38 39 40 41 42 43 44 45 46 47 48 49 50
000
AXUS43 KLBF 291510
MISLBF


WESTERN AND NORTH CENTRAL NEBRASKA HOURLY WEATHER ROUNDUP
NATIONAL WEATHER SERVICE NORTH PLATTE NE
1000 AM CDT TUE JUL 29 2014

***STATIONS NOT REPORTING VARIABLES SUCH AS SKY/WEATHER OR
PRESSURE ARE PROVIDED BY THE NEBRASKA DEPARTMENT OF
ROADS...RAWS...AND APRS NETWORKS...AND ARE NOT UNDER
NATIONAL WEATHER SERVICE QUALITY CONTROL***

...OBSERVATIONS IN AND NEAR THE EASTERN PANHANDLE OF NEBRASKA...

CITY           SKY/WX    TMP DP  RH WIND       PRES   REMARKS
PINE RIDGE     CLOUDY    65  57  75 CALM      30.27F
CHADRON        PTSUNNY   64  55  72 NE6       30.26F
ALLIANCE       SUNNY     68  56  65 E8        30.27R
SIDNEY         SUNNY     67  57  70 E10       30.27R
WHITECLAY        N/A     65  56  71 CALM        N/A
RUSHVILLE        N/A     67  57  71 SE9         N/A
GORDON           N/A     71  62  71 S9          N/A
CRESCENT LAKE    N/A     67  58  72 E7G14       N/A
LISCO            N/A     68  59  73 E9          N/A
BIG SPRINGS      N/A     62  58  86 E8          N/A
$$

...OBSERVATIONS IN NORTH CENTRAL NEBRASKA...

CITY           SKY/WX    TMP DP  RH WIND       PRES   REMARKS
VALENTINE      MOSUNNY   70  58  65 SW7       30.26R
THEDFORD       PTSUNNY   68  58  69 S12       30.27S
AINSWORTH      PTSUNNY   68  57  68 S5        30.26R
O`NEILL        MOSUNNY   69  53  57 CALM      30.25S
ORD            CLOUDY    66  58  75 SW5       30.24S
BROKEN BOW     PTSUNNY   68  58  70 S8        30.26S
BROWNLEE         N/A     68  57  66 S9          N/A
SPRINGVIEW       N/A     70  58  66 CALM        N/A
DUNNING          N/A     70  63  78 CALM        N/A
ROSE             N/A     71  62  72 S8          N/A
NEWPORT          N/A     71  60  68 CALM        N/A
SARGENT          N/A     68  56  65 SW3         N/A
COMSTOCK         N/A     73  63  68 S7          N/A
CHAMBERS         N/A     77  60  54 CALM        N/A
EWING            N/A     67  58  72 CALM        N/A
$$

...OBSERVATIONS IN SOUTHWEST NEBRASKA AND FAR NORTHEAST COLORADO...

CITY           SKY/WX    TMP DP  RH WIND       PRES   REMARKS
WRAY             N/A     71  60  66 E5        30.23S
HOLYOKE        FAIR      72  61  68 SE9       30.24S
IMPERIAL       MOSUNNY   68  57  68 E10       30.24R
OGALLALA       SUNNY     65  57  73 E10       30.25S
NORTH PLATTE   PTSUNNY   63  56  78 SE10      30.24F
MCCOOK         SUNNY     71  57  61 SE10      30.24R
LEXINGTON      PTSUNNY   65  57  74 SE6       30.26F
PAXTON           N/A     62  59  90 E6          N/A
SUTHERLAND       N/A     63  58  83 SE13        N/A
BRADY            N/A     61  57  87 CALM        N/A
CALLAWAY         N/A     59  58  96 S3          N/A
$$

...SOME WEATHER OBSERVATIONS FROM AROUND THE REGION...

CITY           SKY/WX    TMP DP  RH WIND       PRES   REMARKS
DENVER         PTSUNNY   70  58  65 W8        30.26S
LARAMIE        PTSUNNY   66  54  65 E3        30.37S
CHEYENNE       MOSUNNY   71  58  63 E5        30.32R
SCOTTSBLUFF    CLOUDY    62  58  86 E5        30.28R
RAPID CITY     CLOUDY    64  54  69 SE3       30.26S
PIERRE         MOSUNNY   69  56  62 NE3       30.22S
WINNER         FAIR      70  56  61 SW5       30.24S
SIOUX FALLS    MOSUNNY   68  55  63 NW5       30.23S
OMAHA          MOSUNNY   70  59  68 N6        30.22R
GRAND ISLAND   PTSUNNY   69  56  62 SW5       30.25S
KANSAS CITY    MOSUNNY   73  60  63 NW3       30.19R
WICHITA        MOSUNNY   76  60  57 SE8       30.20S
HAYS           SUNNY     73  57  56 SE13      30.21S
LIBERAL        CLOUDY    68  59  73 S13       30.25S
GOODLAND       PTSUNNY   74  63  68 S12       30.23R
$$



USA.gov is the U.S. government's official web portal to all federal, state and local government web resources and services.